Home   Weather   Sfax   Past weeks

Flag for Tunisia Past Weather in Sfax, Tunisia — Yesterday and Last 2 Weeks

Now
57 °F

Passing clouds.


Feels Like: 55 °F
Forecast: 49 / 59 °F
Wind: 10 mph from East

Location: Sfax El-Maou

Current Time: Jan 20, 2017 at 9:29:19 pm

Latest Report: Jan 20, 2017 at 8:00 pm


Visibility: 5 mi

Pressure: 29.89 "Hg

Humidity: 82%

Dew Point: 52 °F

Location of SfaxLocation

Past Weather in Sfax — Graph

°F

Sfax Temperature Yesterday

Maximum temperature yesterday: 59 °F (at 12:00 pm)
Minimum temperature yesterday: 36 °F (at 6:00 am)
Average temperature yesterday: 47 °F

High & Low Weather Summary for the Past Weeks

 TemperatureHumidityPressure
High63 °F (Jan 13, 2:00 pm)94% (Jan 14, 10:00 pm)30.36 "Hg (Jan 14, 10:00 pm)
Low36 °F (Jan 16, 7:00 am)33% (Jan 15, 3:00 pm)29.68 "Hg (Jan 17, 3:00 pm)
Average49 °F65%30.03 "Hg
* Reported Jan 5 8:00 pm — Jan 20 8:00 pm, Sfax, Weather by CustomWeather, © 2017

Note: Actual official high and low records may vary slightly from our data, if they occured in-between our weather recording intervals... More about our weather records

Advertising

Sfax Weather History for the Previous 24 Hours

Scroll right to see more
 ConditionsComfort  
Time TempWeatherWind HumidityBarometerVisibility
8:00 pm
Fri, Jan 20
57 °FPassing clouds.10 mph82%29.89 "Hg5 mi
7:00 pm57 °FPassing clouds.8 mph82%29.89 "Hg5 mi
6:00 pm57 °FPassing clouds.10 mph82%29.89 "Hg5 mi
5:00 pm59 °FScattered clouds.10 mph77%29.89 "Hg5 mi
4:00 pm61 °FScattered clouds.13 mph72%29.89 "Hg5 mi
3:00 pm63 °FScattered clouds.15 mph68%29.92 "Hg5 mi
2:00 pm63 °FScattered clouds.16 mph77%29.92 "Hg5 mi
1:00 pm61 °FScattered clouds.14 mph77%29.95 "Hg5 mi
12:00 pm61 °FScattered clouds.14 mph77%30.01 "Hg5 mi
11:00 am59 °FScattered clouds.15 mph77%30.04 "Hg5 mi
10:00 am57 °FScattered clouds.13 mph82%30.04 "Hg5 mi
9:00 am55 °FScattered clouds.10 mph82%30.04 "Hg5 mi
8:00 am54 °FScattered clouds.10 mph82%30.04 "Hg5 mi
7:00 am50 °FPassing clouds.9 mph88%30.07 "Hg5 mi
6:00 am50 °FPassing clouds.9 mph88%30.07 "Hg5 mi
5:00 am48 °FPassing clouds.7 mph87%30.07 "Hg5 mi
4:00 am46 °FPassing clouds.6 mph87%30.09 "Hg5 mi
3:00 am46 °FPassing clouds.5 mph87%30.09 "Hg5 mi
2:00 am46 °FPassing clouds.7 mph87%30.12 "Hg5 mi
1:00 am46 °FPassing clouds.6 mph82%30.12 "HgN/A
12:00 am46 °FPassing clouds.6 mph82%30.12 "HgN/A
11:00 pm
Thu, Jan 19
45 °FPassing clouds.5 mph81%30.15 "HgN/A
10:00 pm46 °FPassing clouds.5 mph76%30.15 "HgN/A
9:00 pm48 °FPassing clouds.2 mph71%30.15 "HgN/A
Weather by CustomWeather, © 2017

See weather overviewHow to use our weather pages